Flag for Russia Weather past 2 weeks in Khanty-Mansiysk, Russia

Now
39 °F

Passing clouds.


Feels Like: 34 °F
Forecast: 36 / 48 °F
Wind: 8 mph from West

Location: Hanty-Mansijsk

Current Time: May 6, 2015 at 10:43:17 PM

Latest Report: May 6, 2015 at 10:00 PM


Visibility: N/A

Pressure: 29.92 "Hg

Humidity: 56%

Dew point: 25 °F

Location of Khanty-MansiyskLocation

Historic Weather in Khanty-Mansiysk — Graph

°F

Khanty-Mansiysk temperature yesterday

Maximum temperature yesterday: 68 °F (at 11:00 AM)
Minimum temperature yesterday: 46 °F (at 4:00 AM)
Average temperature yesterday: 57 °F

Past Weeks' High & Low Weather Summary

 TemperatureHumidityPressure
High72 °F (May 1, 2:00 PM)100% (May 6, 2:00 AM)30.54 "Hg (May 6, 2:00 AM)
Low25 °F (Apr 28, 5:00 AM)20% (May 3, 2:00 PM)29.12 "Hg (Apr 24, 5:30 AM)
Average43 °F59%29.82 "Hg
* Reported Apr 21 9:00 PM — May 6 9:30 PM, Khanty-Mansiysk, Weather by CustomWeather, © 2015

Note: Actual official high and low records may vary slightly from our data, if they occured in-between our weather recording intervals... More about our weather records

Advertising

Khanty-Mansiysk weather history for previous 24 hours

 ConditionsComfort  
Time TempWeatherWind HumidityBarometerVisibility
9:30 PM
Wed, May 6
39 °FPartly sunny.6 mph56%29.92 "HgN/A
9:00 PM39 °FPartly sunny.6 mph56%29.89 "HgN/A
8:30 PM39 °FPartly sunny.6 mph56%29.89 "HgN/A
8:00 PM41 °FPartly sunny.6 mph53%29.89 "HgN/A
7:30 PM41 °FPartly sunny.8 mph49%29.89 "HgN/A
7:00 PM41 °FPartly sunny.6 mph53%29.89 "HgN/A
6:30 PM43 °FPartly sunny.8 mph49%29.86 "HgN/A
6:00 PM45 °FPartly sunny.6 mph46%29.86 "HgN/A
5:30 PM45 °FSunny.10 mph46%29.83 "Hg10 mi
5:00 PM46 °FSunny.13 mph43%29.83 "Hg10 mi
4:30 PM46 °FSunny.10 mph43%29.83 "Hg10 mi
4:00 PM48 °FSunny.15 mph40%29.80 "Hg10 mi
3:30 PM48 °FSunny.13 mph43%29.80 "Hg10 mi
3:00 PM50 °FSunny.15 mph40%29.77 "Hg10 mi
2:30 PM50 °FSunny.13 mph43%29.77 "Hg10 mi
2:00 PM50 °FSunny.13 mph40%29.77 "Hg10 mi
1:30 PM48 °FSunny.8 mph58%29.77 "Hg10 mi
1:00 PM45 °FPartly sunny.8 mph61%29.77 "HgN/A
12:30 PM43 °FPartly sunny.6 mph71%29.77 "HgN/A
12:00 PM41 °FPartly sunny.8 mph76%29.74 "HgN/A
11:30 AM39 °FPartly sunny.3 mph81%29.74 "HgN/A
11:00 AM39 °FSprinkles. Partly sunny.8 mph87%29.74 "Hg6 mi
10:30 AM41 °FPartly sunny.8 mph81%29.74 "HgN/A
10:00 AM43 °FPartly sunny.8 mph87%29.71 "HgN/A
9:30 AM45 °FPartly sunny.8 mph87%29.71 "HgN/A
9:00 AM52 °FPartly sunny.13 mph82%29.68 "HgN/A
8:00 AM54 °FScattered clouds.3 mph88%29.68 "HgN/A
7:30 AM52 °FScattered clouds.6 mph94%29.68 "HgN/A
7:00 AM50 °FSprinkles. Scattered clouds.3 mph94%29.68 "HgN/A
6:30 AM50 °FSprinkles. Partly sunny.3 mph94%29.71 "Hg6 mi
6:00 AM50 °FSprinkles. Partly sunny.6 mph94%29.71 "Hg5 mi
5:30 AM52 °FScattered clouds.6 mph88%29.71 "Hg5 mi
5:00 AM52 °FPassing clouds.6 mph94%29.71 "HgN/A
4:30 AM52 °FPassing clouds.6 mph94%29.71 "HgN/A
4:00 AM52 °FPassing clouds.3 mph94%29.71 "HgN/A
3:30 AM52 °FSprinkles. Passing clouds.6 mph94%29.71 "HgN/A
3:00 AM52 °FSprinkles. Passing clouds.8 mph94%29.71 "HgN/A
2:30 AM52 °FSprinkles. Passing clouds.8 mph94%29.74 "Hg6 mi
2:00 AM50 °FSprinkles. Passing clouds.6 mph100%29.74 "HgN/A
1:30 AM52 °FPassing clouds.6 mph94%29.74 "HgN/A
1:00 AM52 °FPassing clouds.6 mph88%29.77 "HgN/A
12:30 AM52 °FSprinkles. Passing clouds.6 mph82%29.77 "HgN/A
12:00 AM52 °FSprinkles. Passing clouds.3 mph77%29.77 "HgN/A
11:30 PM
Tue, May 5
54 °FPassing clouds.6 mph67%29.80 "HgN/A
11:00 PM55 °FPassing clouds.6 mph63%29.80 "HgN/A
10:30 PM55 °FPassing clouds.6 mph63%29.80 "HgN/A
10:00 PM55 °FPassing clouds.8 mph59%29.83 "HgN/A
Weather by CustomWeather, © 2015

See weather overviewHow to use our weather pages